Вернуться в каталог

DELTA 1 DEB

АктивенSSO
NORAD 21568·DEBRIS·🇺🇸 United States

Запущен Jun 12, 1975 с Vandenberg Space Force Base

Loading…

Ближайшие Пролёты (ближайшие 24 часа)

TLE

СвежийSource: Space-Track

Эпоха: Sep 14, 2026, 00:48 UTC

1 21568U 75052HN  26257.03344204  .00000501  00000-0  60750-3 0  9990
2 21568  99.8882 107.2440 0239309 245.0204 279.5299 13.60102827739810

Отслеживайте DELTA 1 DEB в реальном времени с AllMySat

Download on the App Store